Home   Weather   Geelong   Past weeks
Flag for Australia

Past Weather in Geelong, Victoria, Australia — Yesterday and Last 2 Weeks

Now
66 °F

Mild.


Feels Like: 66 °F
Forecast: 65 / 45 °F
Wind: 5 mph from Northeast

Location: Geelong Airport Aws

Current Time: Oct 14, 2019 at 12:13:06 pm

Latest Report: Oct 14, 2019 at 10:00 am


Visibility: N/A

Pressure: 29.92 "Hg

Humidity: 71%

Dew Point: 56 °F

Location of GeelongLocation

Past Weather in Geelong — Graph

°F

Geelong Temperature Yesterday

Maximum temperature yesterday: 73 °F (at 6:00 pm)
Minimum temperature yesterday: 44 °F (at 7:00 am)
Average temperature yesterday: 59 °F

High & Low Weather Summary for the Past Weeks

 TemperatureHumidityPressure
High79 °F (Oct 2, 12:00 pm)97% (Oct 2, 5:00 am)30.43 "Hg (Oct 2, 5:00 am)
Low36 °F (Oct 1, 6:00 am)26% (Oct 2, 12:00 pm)29.59 "Hg (Oct 6, 7:00 am)
Average55 °F79%30.13 "Hg
* Reported Sep 29 9:00 am — Oct 14 10:00 am, Geelong. Weather by CustomWeather, © 2019

Note: Actual official high and low records may vary slightly from our data, if they occured in-between our weather recording intervals... More about our weather records

Advertising

Geelong Weather History for the Previous 24 Hours

Scroll right to see more
 ConditionsComfort  
Time TempWeatherWind HumidityBarometerVisibility
10:00 am
Mon, Oct 14
66 °FMild.5 mph71%29.92 "HgN/A
9:00 am64 °FMild.3 mph70%29.92 "HgN/A
7:00 am57 °FCool.5 mph95%29.91 "HgN/A
6:00 am57 °FCool.3 mph94%29.89 "HgN/A
4:00 am57 °FCool.1 mph93%29.91 "HgN/A
3:00 am58 °FFog.No wind81%29.92 "HgN/A
1:00 am60 °FCool.6 mph78%29.92 "HgN/A
12:00 am62 °FCool.8 mph72%29.91 "HgN/A
10:00 pm
Sun, Oct 13
63 °FMild.8 mph63%29.93 "HgN/A
9:00 pm65 °FMild.7 mph56%29.94 "HgN/A
7:00 pm70 °FMild.7 mph44%29.93 "HgN/A
6:00 pm73 °FMild.10 mph37%29.92 "HgN/A
4:00 pm71 °FMild.12 mph44%29.94 "HgN/A
3:00 pm72 °FMild.9 mph42%29.97 "HgN/A
1:00 pm67 °FMild.6 mph58%30.02 "HgN/A
12:00 pm63 °FMild.7 mph64%30.04 "HgN/A
Weather by CustomWeather, © 2019

See weather overview